TimeEST,TemperatureF,Dew PointF,Humidity,Sea Level PressureIn,VisibilityMPH,Wind Direction,Wind SpeedMPH,Gust SpeedMPH,PrecipitationIn,Events,Conditions,WindDirDegrees,DateUTC
12:15 AM,69.8,64.4,83,29.85,10.0,SSE,10.4,18.4,N/A,,Scattered Clouds,160,2013-12-22 05:15:00
12:26 AM,69.8,64.4,83,29.84,10.0,South,15.0,20.7,N/A,,Mostly Cloudy,170,2013-12-22 05:26:00
12:53 AM,70.0,64.9,84,29.83,10.0,South,10.4,27.6,N/A,,Overcast,170,2013-12-22 05:53:00
1:53 AM,70.0,64.9,84,29.81,10.0,South,11.5,18.4,N/A,,Overcast,170,2013-12-22 06:53:00
2:53 AM,71.1,64.9,81,29.80,10.0,South,13.8,21.9,N/A,,Overcast,170,2013-12-22 07:53:00
3:38 AM,71.6,64.4,78,29.85,10.0,SW,15.0,19.6,N/A,Thunderstorm,Overcast,220,2013-12-22 08:38:00
3:47 AM,62.6,59.0,88,29.90,2.0,WSW,13.8,36.8,0.05,Rain,Heavy Rain,250,2013-12-22 08:47:00
3:49 AM,60.8,57.2,88,29.89,1.2,WSW,17.3,36.8,0.12,Rain,Heavy Rain,250,2013-12-22 08:49:00
3:53 AM,61.0,57.0,87,29.88,0.8,WSW,15.0,26.5,0.31,Rain-Thunderstorm,Heavy Thunderstorms and Rain,250,2013-12-22 08:53:00
3:58 AM,60.8,57.2,88,29.88,1.0,SSW,16.1,23.0,0.14,Rain-Thunderstorm,Heavy Thunderstorms and Rain,210,2013-12-22 08:58:00
4:07 AM,60.8,55.4,82,29.88,1.8,WSW,12.7,25.3,0.27,Rain,Heavy Rain,240,2013-12-22 09:07:00
4:17 AM,60.8,57.2,88,29.88,2.0,SSW,10.4,-,0.37,Rain-Thunderstorm,Heavy Thunderstorms and Rain,200,2013-12-22 09:17:00
4:40 AM,59.0,55.4,88,29.88,3.0,SSW,9.2,16.1,0.55,Rain-Thunderstorm,Heavy Thunderstorms and Rain,210,2013-12-22 09:40:00
4:48 AM,59.0,55.4,88,29.88,3.0,SW,9.2,-,0.59,Rain-Thunderstorm,Heavy Thunderstorms and Rain,230,2013-12-22 09:48:00
4:53 AM,59.0,55.9,90,29.88,2.5,SW,8.1,-,0.63,Rain-Thunderstorm,Heavy Rain,220,2013-12-22 09:53:00
5:08 AM,59.0,55.4,88,29.90,5.0,South,4.6,-,0.08,Rain-Thunderstorm,Heavy Thunderstorms and Rain,170,2013-12-22 10:08:00
5:24 AM,57.2,55.4,94,29.89,2.5,South,6.9,-,0.16,Rain,Heavy Rain,180,2013-12-22 10:24:00
5:53 AM,57.9,55.0,90,29.87,2.5,SW,3.5,-,0.32,Rain,Rain,220,2013-12-22 10:53:00
6:29 AM,57.2,55.4,94,29.93,4.0,Variable,4.6,-,0.13,Rain,Light Rain,0,2013-12-22 11:29:00
6:53 AM,57.9,55.0,90,29.92,3.0,SE,9.2,-,0.30,Rain,Heavy Rain,140,2013-12-22 11:53:00
7:53 AM,57.0,54.0,89,29.93,3.0,SE,10.4,-,0.17,Rain,Light Rain,140,2013-12-22 12:53:00
8:53 AM,57.0,54.0,89,29.95,5.0,South,4.6,-,0.08,Rain,Light Rain,180,2013-12-22 13:53:00
9:53 AM,57.0,53.1,87,29.96,5.0,ESE,5.8,-,0.00,Rain,Light Rain,110,2013-12-22 14:53:00
10:53 AM,57.0,53.1,87,29.98,5.0,Calm,Calm,-,0.03,Rain,Light Rain,0,2013-12-22 15:53:00
11:30 AM,57.2,53.6,88,30.01,5.0,WSW,3.5,-,0.00,Rain,Light Rain,240,2013-12-22 16:30:00
11:53 AM,57.0,55.0,93,29.99,5.0,SSW,3.5,-,0.00,,Overcast,210,2013-12-22 16:53:00
12:47 PM,57.2,53.6,88,29.96,6.0,South,4.6,-,N/A,,Overcast,170,2013-12-22 17:47:00
12:53 PM,57.9,54.0,87,29.95,6.0,South,3.5,-,N/A,,Overcast,190,2013-12-22 17:53:00
1:53 PM,59.0,54.0,83,29.97,6.0,South,8.1,-,N/A,,Overcast,180,2013-12-22 18:53:00
2:53 PM,59.0,54.0,83,29.97,10.0,South,5.8,-,N/A,,Overcast,170,2013-12-22 19:53:00
3:31 PM,59.0,53.6,82,29.98,10.0,SSE,8.1,-,N/A,,Overcast,160,2013-12-22 20:31:00
3:53 PM,59.0,54.0,83,29.98,10.0,South,8.1,-,N/A,,Overcast,180,2013-12-22 20:53:00
4:53 PM,57.9,54.0,87,30.00,7.0,South,9.2,-,0.00,Rain,Light Rain,170,2013-12-22 21:53:00
5:53 PM,57.9,55.0,90,30.01,10.0,South,3.5,-,0.00,,Mostly Cloudy,180,2013-12-22 22:53:00
6:53 PM,57.9,55.0,90,30.03,10.0,South,5.8,-,N/A,,Mostly Cloudy,170,2013-12-22 23:53:00
7:53 PM,57.0,54.0,89,30.04,10.0,South,3.5,-,N/A,,Mostly Cloudy,180,2013-12-23 00:53:00
8:08 PM,57.2,53.6,88,30.05,10.0,SW,3.5,-,N/A,,Mostly Cloudy,230,2013-12-23 01:08:00
8:53 PM,55.9,54.0,93,30.03,10.0,ESE,4.6,-,N/A,,Mostly Cloudy,120,2013-12-23 01:53:00
9:53 PM,57.0,54.0,89,30.06,10.0,South,3.5,-,0.00,Rain,Light Rain,180,2013-12-23 02:53:00
10:53 PM,55.9,54.0,93,30.07,6.0,South,4.6,-,0.01,Rain,Light Rain,180,2013-12-23 03:53:00
11:44 PM,55.4,53.6,94,30.06,3.0,Calm,Calm,-,0.03,Rain,Rain,0,2013-12-23 04:44:00
11:53 PM,55.9,54.0,93,30.06,3.0,Calm,Calm,-,0.03,Rain,Light Rain,0,2013-12-23 04:53:00